#timestamp,LO_Frequency,Hit,StdDev 
1508335215.3,286046996.9,N
1508335235.2,286046997.7,N
1508335255.9,286046999.5,N
1508335275.7,286047001.2,N
1508335295.6,286047000.7,N
1508335315.4,286046998.2,N
1508335335.2,286046999.6,N
1508335355.1,286047000.3,N
1508335356.0,286047000.3,N
1508335375.8,286047000.2,N
1508335395.6,286047002.3,N
1508335415.4,286046997.1,N
1508335435.3,286046994.6,N
1508335455.1,286046992.0,Y
1508335475.8,286046994.4,P
1508335495.7,286046991.9,P
1508335515.5,286046992.1,N
1508335535.3,286046992.2,N
1508335555.2,286046994.9,N
1508335575.9,286046993.7,N
1508335595.7,286046992.3,Y
1508335615.6,286046999.8,P
1508335635.4,286047000.4,N
1508335655.2,286047002.0,N
1508335675.1,286046999.9,N
1508335676.0,286046999.9,N
1508335695.8,286047004.2,N
1508335715.6,286047005.2,N
1508335735.5,286047009.2,N
1508335755.3,286047006.0,N
1508335775.1,286047005.9,N
1508335795.9,286047005.0,N
1508335815.7,286047006.3,N
1508335835.5,286047010.2,N
1508335855.4,286047009.0,N
1508335875.2,286047004.8,N
1508335895.0,286047005.2,N
1508335895.9,286047005.2,N
1508335915.8,286047003.1,N
1508335935.6,286047005.4,N
1508335955.4,286047005.2,N
1508335975.2,286047003.7,N
1508335995.1,286047001.3,N
1508335996.0,286047001.3,N
1508336015.8,286047002.3,N
1508336035.6,286047002.7,N
1508336055.5,286047004.7,N
1508336075.3,286047007.3,N
1508336095.1,286047007.5,N
1508336115.9,286047005.4,N
1508336135.7,286047003.5,N
1508336155.5,286047005.3,N
1508336175.4,286047007.2,N
1508336195.2,286047003.4,N
1508336215.0,286047008.9,Y
1508336215.9,286047008.9,P
1508336235.8,286047005.6,N
1508336255.6,286047003.3,N
1508336275.4,286047001.3,N
1508336295.3,286047004.3,N
1508336315.1,286047002.7,N
1508336316.0,286047002.7,N
1508336335.8,286047000.7,N
1508336355.7,286047001.5,N
1508336375.5,286047002.4,N
1508336395.3,286046999.1,N
1508336415.1,286046999.4,N
1508336435.9,286046995.3,N
1508336455.7,286046996.5,N
1508336475.5,286047000.5,N
1508336495.4,286047000.3,N
1508336515.2,286046999.3,N
1508336535.0,286046996.4,N
1508336535.9,286046996.4,N
1508336555.8,286046993.8,N
1508336575.6,286046992.6,N
1508336595.4,286046993.6,N
1508336615.3,286046992.5,N
1508336635.1,286046988.6,N
1508336636.0,286046988.6,N
1508336655.8,286046994.7,N
1508336675.7,286046988.6,N
1508336695.5,286046992.9,N
1508336715.3,286046990.5,N
1508336735.2,286046990.9,N
1508336755.9,286046993.6,N
1508336775.7,286046994.5,N
1508336795.5,286046996.8,N
1508336815.4,286046995.4,N
1508336835.2,286046997.5,N
1508336855.0,286046992.1,N
1508336855.9,286046992.1,N
1508336875.8,286046993.6,N
1508336895.6,286046997.4,N
1508336915.4,286046999.3,N
1508336935.3,286046998.3,N
1508336955.1,286046999.3,N
1508336956.0,286046999.3,N
1508336975.8,286047001.1,N
1508336995.7,286047002.0,N
1508337015.5,286046999.1,N
1508337035.3,286046997.5,N
1508337055.2,286046997.8,N
1508337075.9,286046995.4,N
1508337095.7,286046996.9,N
1508337115.6,286047000.6,N
1508337135.4,286047001.2,N
1508337155.2,286047002.3,N
1508337175.0,286046999.8,N
1508337175.9,286046999.8,N
1508337195.8,286046998.1,N
1508337215.6,286046999.9,N
1508337235.4,286047002.2,N
1508337255.3,286046999.1,N
1508337275.1,286046997.2,N
1508337295.8,286046998.7,N
1508337315.7,286046998.6,N
1508337335.5,286046998.1,N
1508337355.3,286046999.5,N
1508337375.2,286046999.3,N
1508337395.9,286046995.3,N
1508337415.7,286046999.5,N
1508337435.6,286046998.0,N
1508337455.4,286046997.1,N
1508337475.2,286046999.5,N
1508337495.0,286046996.6,N
1508337496.0,286046996.6,N
1508337515.8,286047000.8,N
1508337535.6,286047003.4,N
1508337555.4,286047003.1,N
1508337575.3,286047005.6,N
1508337595.1,286047004.4,N
1508337615.8,286047004.2,N
1508337635.7,286046998.8,N
1508337655.5,286047001.5,N
1508337675.3,286047001.1,N
1508337695.2,286046993.9,N
1508337715.9,286046996.0,N
1508337735.7,286046998.1,N
1508337755.6,286047000.4,N
1508337775.4,286046999.9,N
1508337795.2,286047001.5,N
1508337815.1,286047004.3,N
1508337816.0,286047004.3,N
1508337835.8,286047002.6,N
1508337855.6,286047003.7,N
1508337875.5,286047004.2,N
1508337895.3,286047003.2,N
1508337915.1,286047004.3,N
1508337935.9,286047005.2,N
1508337955.7,286047003.9,N
1508337975.5,286047002.0,N
1508337995.3,286047001.4,N
1508338015.2,286047001.0,N
1508338035.0,286046999.9,N
1508338035.9,286046999.9,N
1508338055.7,286046999.0,N
1508338075.6,286047002.2,N
1508338095.4,286046998.2,N
1508338115.2,286047000.6,N
1508338135.1,286047000.5,N
1508338136.0,286047000.5,N
1508338155.8,286047000.6,N
1508338175.6,286047001.2,N
1508338195.5,286047000.7,N
1508338215.3,286047002.7,N
1508338235.1,286047001.7,N
1508338255.9,286047001.4,N
1508338275.7,286047002.8,N
1508338295.5,286047004.3,N
1508338315.4,286047002.2,N
1508338335.2,286047007.6,Y
1508338355.0,286047002.4,P
1508338355.9,286047002.4,P
1508338375.8,286047004.0,P
1508338395.6,286047002.5,Y
1508338415.4,286046998.7,P
1508338435.3,286046998.3,N
1508338455.1,286046998.5,N
1508338456.0,286046998.5,N
1508338475.8,286046999.6,N
1508338495.7,286046998.5,N
1508338515.5,286047002.4,N
1508338535.3,286047004.1,N
1508338555.2,286046996.8,N
1508338575.9,286046997.4,N
1508338595.7,286047000.0,N
1508338615.6,286047000.1,N
1508338635.4,286046995.5,N
1508338655.2,286046998.7,N
1508338675.0,286046998.0,N
1508338676.0,286046998.0,N
1508338695.8,286046993.3,Y
1508338715.6,286046999.5,P
1508338735.5,286046999.0,P
1508338755.3,286046995.7,P
1508338775.1,286046997.1,N
1508338795.9,286047000.7,N
